{"data":{"norad_id":43252,"epoch":"2026-09-19T22:49:15.231072Z","epoch_age_seconds":62952,"freshness":"FRESH","line1":"1 43252U 18030D   26262.95087073  .00000082  00000+0  22121-4 0  9996","line2":"2 43252  86.3915 250.7915 0002280  87.2268 272.9188 14.34217801443777","mean_motion":14.34217801,"eccentricity":0.000228,"inclination_deg":86.3915,"raan_deg":250.7915,"arg_perigee_deg":87.2268,"mean_anomaly_deg":272.9188,"bstar":2.2121e-5,"rev_number":44377,"period_min":100.40316045415,"perigee_km":776.03546140732,"apogee_km":779.29850802435,"semimajor_km":7155.8039847158,"source":"CELESTRAK","updated_at":"2026-09-20T09:00:36.329034Z"}}